Location: Brachbach
(49.1847°N, 9.7240°E)
Time: 13:28:47
(UTC+00:00)

CZ-2C R/B - Pass Details

Date: 09 August 2024
Orbit: 782 x 869 km, 98.3° (Epoch: 15 September)

Event Time Altitude Azimuth Distance (km) Brightness Sun altitude
Exits shadow 23:08:07 - 98° (E) 3,026 5.5 -25.2°
Reaches altitude 10° 23:10:23 10° 80° (E) 2,481 5.2 -25.2°
Maximum altitude 23:12:59 14° 52° (NE) 2,220 5.3 -25.3°
Drops below altitude 10° 23:15:34 10° 23° (NNE) 2,462 5.9 -25.3°
Sets 23:19:07 0° 359° (N) 3,381 7.2 -25.3°
